Retour au catalogue

STARLINK-33630

ActifCommunicationsVLEO
NORAD 63477·PAYLOAD·🇺🇸 United States

Lancé Apr 6, 2025 depuis Cape Canaveral Space Force Station

Loading…

Prochains Passages (prochaines 24 heures)

TLE

FraisSource: CelesTrak SupGP

Époque: Sep 14, 2026, 21:06 UTC

1 63477C 25070T   26257.87965278  .00022793  00000+0  82583-3 0  2573
2 63477  43.0025 267.7743 0001559 266.1727  26.3222 15.27556047    10

Suivez STARLINK-33630 en temps réel avec AllMySat

Download on the App Store